Date String (YYYY-MM-DD hh:mm:ss) UTC,Instrument flags,Ambient pressure (hPa),Sample flow (lpm),Bypass flow (lpm),Sample temperature (°C),Ambient temperature (°C),ASC tube jacket temperature (°C),LED temperature (°C),Box temperature (°C),Sample RH (%),Span deviation,Mass concentration (μg/m³),Mass concentration (μg/m³),Mass concentration (μg/m³)
DateTimeUTC,F1_M11,P_M11,Q1_M11,Q2_M11,T1_M11,T2_M11,T3_M11,T4_M11,T5_M11,U1_M11,ZSPAN_M11,X2_M11,X0_M11,X1_M11
2022-02-19 23:00:00,,0820.3,5.01,0.00,25.0,24.0,00.0,34.1,26.8,07.3,0000.0,0000.54,0001.08,0000.37
2022-02-19 23:01:00,,0820.4,4.99,0.00,25.0,23.9,00.0,34.1,26.8,07.3,0000.0,0000.53,0001.06,0000.38
2022-02-19 23:02:00,,0820.5,4.99,0.00,25.0,23.9,00.0,34.0,26.7,07.5,0000.0,0000.54,0001.15,0000.38
2022-02-19 23:03:00,,0820.3,5.01,0.00,25.0,23.9,00.0,34.0,26.7,07.4,0000.0,0000.57,0001.35,0000.39
2022-02-19 23:04:00,,0820.4,5.00,0.00,25.0,23.9,00.0,34.0,26.7,07.2,0000.0,0000.59,0001.69,0000.39
2022-02-19 23:05:00,,0820.4,4.99,0.00,24.9,23.9,00.0,34.0,26.7,07.5,0000.0,0000.59,0001.70,0000.40
2022-02-19 23:06:00,,0820.3,5.02,0.00,24.9,23.9,00.0,34.0,26.6,07.5,0000.0,0000.57,0001.65,0000.40
2022-02-19 23:07:00,,0820.1,5.00,0.00,24.9,23.9,00.0,34.0,26.6,07.4,0000.0,0000.58,0001.67,0000.40
2022-02-19 23:08:00,,0820.2,5.00,0.00,24.9,23.9,00.0,34.0,26.7,07.4,0000.0,0000.59,0001.72,0000.39
2022-02-19 23:09:00,,0820.3,4.98,0.00,24.9,23.8,00.0,33.9,26.7,07.5,0000.0,0000.61,0001.74,0000.40
2022-02-19 23:10:00,,0820.3,5.01,0.00,24.9,23.8,00.0,33.9,26.6,07.3,0000.0,0000.62,0001.67,0000.39
2022-02-19 23:11:00,,0820.3,5.01,0.00,24.9,23.9,00.0,33.9,26.6,07.6,0000.0,0000.64,0001.86,0000.39
2022-02-19 23:12:00,,0820.4,5.00,0.00,24.8,23.9,00.0,33.9,26.5,07.6,0000.0,0000.66,0001.87,0000.39
2022-02-19 23:13:00,,0820.3,4.99,0.00,24.8,23.9,00.0,33.9,26.4,07.6,0000.0,0000.66,0001.83,0000.39
2022-02-19 23:14:00,,0820.3,5.00,0.00,24.8,23.9,00.0,33.9,26.4,07.5,0000.0,0000.66,0001.70,0000.39
2022-02-19 23:15:00,,0820.3,5.02,0.00,24.7,23.8,00.0,33.8,26.4,07.7,0000.0,0000.65,0001.38,0000.39
2022-02-19 23:16:00,,0820.4,5.00,0.00,24.7,23.9,00.0,33.8,26.3,07.7,0000.0,0000.65,0001.34,0000.39
2022-02-19 23:17:00,,0820.3,5.00,0.00,24.7,23.9,00.0,33.8,26.4,07.7,0000.0,0000.66,0001.37,0000.40
2022-02-19 23:18:00,,0820.3,5.00,0.00,24.7,23.9,00.0,33.8,26.3,07.6,0000.0,0000.67,0001.40,0000.40
2022-02-19 23:19:00,,0820.3,5.01,0.00,24.7,23.9,00.0,33.8,26.3,07.4,0000.0,0000.66,0001.39,0000.40
2022-02-19 23:20:00,,0820.3,5.00,0.00,24.7,23.9,00.0,33.8,26.4,07.5,0000.0,0000.63,0001.33,0000.40
2022-02-19 23:21:00,,0820.3,4.99,0.00,24.7,23.9,00.0,33.8,26.5,07.4,0000.0,0000.61,0001.18,0000.40
2022-02-19 23:22:00,,0820.3,4.99,0.00,24.7,23.9,00.0,33.8,26.5,07.7,0000.0,0000.62,0001.29,0000.40
2022-02-19 23:23:00,,0820.2,5.02,0.00,24.7,24.0,00.0,33.8,26.4,07.3,0000.0,0000.63,0001.41,0000.40
2022-02-19 23:24:00,,0820.3,5.00,0.00,24.7,24.0,00.0,33.8,26.5,07.3,0000.0,0000.62,0001.39,0000.39
2022-02-19 23:25:00,,0820.3,5.00,0.00,24.7,24.0,00.0,33.8,26.4,07.5,0000.0,0000.61,0001.42,0000.39
2022-02-19 23:26:00,,0820.3,5.00,0.00,24.7,24.0,00.0,33.8,26.3,07.7,0000.0,0000.62,0001.41,0000.39
2022-02-19 23:27:00,,0820.3,5.00,0.00,24.7,24.0,00.0,33.8,26.4,08.0,0000.0,0000.60,0001.37,0000.39
2022-02-19 23:28:00,,0820.2,5.00,0.00,24.8,24.1,00.0,33.8,26.5,07.5,0000.0,0000.61,0001.38,0000.38
2022-02-19 23:29:00,,0820.3,5.01,0.00,24.8,24.1,00.0,33.8,26.5,07.3,0000.0,0000.62,0001.39,0000.38
2022-02-19 23:30:00,,0820.3,4.99,0.00,24.8,24.1,00.0,33.8,26.5,07.3,0000.0,0000.62,0001.37,0000.38
2022-02-19 23:31:00,,0820.1,4.99,0.00,24.8,24.0,00.0,33.8,26.4,07.6,0000.0,0000.63,0001.40,0000.38
2022-02-19 23:32:00,,0819.9,5.00,0.00,24.8,24.1,00.0,33.8,26.6,07.4,0000.0,0000.64,0001.41,0000.39
2022-02-19 23:33:00,,0819.8,5.00,0.00,24.8,24.1,00.0,33.8,26.6,07.5,0000.0,0000.62,0001.17,0000.39
2022-02-19 23:34:00,,0820.0,4.99,0.00,24.8,24.0,00.0,33.8,26.6,07.4,0000.0,0000.59,0001.03,0000.39
2022-02-19 23:35:00,,0820.0,5.00,0.00,24.8,24.0,00.0,33.8,26.6,07.7,0000.0,0000.59,0001.03,0000.39
2022-02-19 23:36:00,,0820.0,5.01,0.00,24.8,24.0,00.0,33.8,26.6,07.5,0000.0,0000.59,0000.98,0000.39
2022-02-19 23:37:00,,0820.0,5.00,0.00,24.8,24.0,00.0,33.8,26.6,07.7,0000.0,0000.57,0001.12,0000.39
2022-02-19 23:38:00,,0820.1,5.00,0.00,24.8,24.0,00.0,33.8,26.6,07.7,0000.0,0000.59,0001.22,0000.39
2022-02-19 23:39:00,,0820.2,5.00,0.00,24.8,24.0,00.0,33.8,26.5,07.5,0000.0,0000.59,0001.23,0000.39
2022-02-19 23:40:00,,0820.2,4.99,0.00,24.7,24.0,00.0,33.8,26.5,07.2,0000.0,0000.59,0001.23,0000.39
2022-02-19 23:41:00,,0820.2,5.01,0.00,24.7,24.0,00.0,33.8,26.4,07.5,0000.0,0000.60,0001.26,0000.39
2022-02-19 23:42:00,,0820.2,5.00,0.00,24.7,24.0,00.0,33.8,26.4,07.7,0000.0,0000.62,0001.33,0000.40
2022-02-19 23:43:00,,0820.3,5.00,0.00,24.7,24.0,00.0,33.8,26.4,07.9,0000.0,0000.63,0001.35,0000.40
2022-02-19 23:44:00,,0820.2,5.00,0.00,24.8,24.0,00.0,33.8,26.4,08.2,0000.0,0000.64,0001.32,0000.40
2022-02-19 23:45:00,,0820.2,5.00,0.00,24.8,24.0,00.0,33.8,26.5,07.6,0000.0,0000.64,0001.31,0000.40
2022-02-19 23:46:00,,0820.2,5.01,0.00,24.7,24.0,00.0,33.8,26.5,07.4,0000.0,0000.64,0001.33,0000.40
2022-02-19 23:47:00,,0820.3,4.99,0.00,24.8,24.0,00.0,33.8,26.5,07.2,0000.0,0000.65,0001.36,0000.40
2022-02-19 23:48:00,,0820.2,5.00,0.00,24.7,24.0,00.0,33.8,26.5,07.2,0000.0,0000.65,0001.38,0000.40
2022-02-19 23:49:00,,0820.3,5.00,0.00,24.7,24.0,00.0,33.8,26.5,07.5,0000.0,0000.64,0001.27,0000.40
2022-02-19 23:50:00,,0820.2,5.02,0.00,24.7,24.0,00.0,33.8,26.4,07.6,0000.0,0000.62,0001.22,0000.40
2022-02-19 23:51:00,,0820.1,4.99,0.00,24.7,24.0,00.0,33.8,26.4,07.5,0000.0,0000.61,0001.18,0000.40
2022-02-19 23:52:00,,0820.1,4.99,0.00,24.8,24.0,00.0,33.8,26.5,07.7,0000.0,0000.61,0001.81,0000.39
2022-02-19 23:53:00,,0819.9,5.00,0.00,24.8,24.0,00.0,33.8,26.5,07.6,0000.0,0000.57,0001.83,0000.38
2022-02-19 23:54:00,,0819.9,5.02,0.00,24.8,24.1,00.0,33.8,26.5,07.2,0000.0,0000.55,0001.83,0000.38
2022-02-19 23:55:00,,0820.0,4.99,0.00,24.8,24.1,00.0,33.8,26.5,07.5,0000.0,0000.56,0001.85,0000.38
2022-02-19 23:56:00,,0819.9,4.99,0.00,24.8,24.1,00.0,33.8,26.5,07.5,0000.0,0000.58,0001.91,0000.38
2022-02-19 23:57:00,,0819.9,5.01,0.00,24.8,24.1,00.0,33.8,26.4,07.5,0000.0,0000.57,0001.89,0000.38
2022-02-19 23:58:00,,0820.0,5.00,0.00,24.8,24.1,00.0,33.8,26.5,07.4,0000.0,0000.55,0002.04,0000.38
2022-02-19 23:59:00,,0820.0,4.99,0.00,24.8,24.1,00.0,33.8,26.5,07.5,0000.0,0000.53,0002.50,0000.38
